Location: Kermapucano
(48.0667°N, 3.3000°W)
Time: 02:03:40
(UTC+00:00)

Daily predictions for brighter satellites

Satellite Brightness Start Highest point End
(mag) Time Altitude Azimuth Time Altitude Azimuth Time Altitude Azimuth
ATLAS 3B R/B 4.1 03:30:34 32° NE 03:30:34 32° NE 03:36:09 10° E
NOSS 3-2 (C) 4.3 04:00:08 63° SSE 04:00:08 63° SSE 04:07:06 10° SE
CENTAUR R/B 3.2 04:01:35 72° SSE 04:01:35 72° SSE 04:09:25 10° SE
NOSS 3-4 (A) 4.4 04:00:50 40° ESE 04:00:50 40° ESE 04:06:28 10° NE
NOSS 3-4 (C) 4.4 04:00:54 39° ESE 04:00:54 39° ESE 04:06:35 10° NE
ATLAS 2AS CENTAUR R/B 3.7 04:15:30 24° S 04:20:13 50° ESE 04:27:44 10° NE
Cosmos 2297 Rocket 4.5 04:30:30 12° N 04:30:30 12° N 04:31:09 10° N
ATLAS 5 CENTAUR R/B 4.4 04:31:19 15° NE 04:31:19 15° NE 04:31:44 10° NE
ATLAS CENTAUR R/B 3.6 04:32:06 21° ENE 04:32:06 21° ENE 04:34:04 10° E
Lacrosse 5 2.8 04:32:03 42° SE 04:32:03 42° SE 04:36:42 10° ENE
ADEOS 4.5 04:29:16 10° NNE 04:34:18 46° E 04:39:18 10° S
Cosmos 2263 Rocket 2.4 04:43:11 64° NNE 04:43:11 64° NNE 04:48:00 10° NNE
SJ 16-02 2.3 04:45:52 46° ENE 04:45:52 46° ENE 04:49:18 10° NNE
Meteor 1-26 Rocket 4.4 04:48:59 24° N 04:52:32 73° ENE 04:58:08 10° SSE
FENGYUN 3A 3.6 04:53:49 10° NNE 04:59:17 85° ESE 05:04:41 10° SSW
Cosmos 1408 Rocket 4.5 04:58:03 10° SSE 05:02:21 49° E 05:06:40 10° NNE
Cosmos 2181 Rocket 3.9 04:57:30 10° N 05:03:46 87° E 05:09:55 10° S
USA 307 4.0 05:05:08 35° NNE 05:05:08 35° NNE 05:08:32 10° ENE
COSMO-SKYMED 1 3.0 05:02:05 10° SSE 05:06:21 61° ENE 05:07:59 35° N
Cosmos 1709 Rocket 3.9 05:00:39 10° SSW 05:07:01 73° W 05:13:25 10° N
USA 308 3.9 05:11:14 36° NNE 05:11:14 36° NNE 05:14:54 10° ENE
Lacrosse 4 Rocket 2.7 05:14:32 30° S 05:14:32 30° S 05:17:04 10° S
Meteor 2-3 Rocket 3.6 05:08:31 10° S 05:14:16 87° W 05:20:06 10° N
CZ-4C R/B 2.6 05:11:05 17° SSW 05:14:48 57° ESE 05:20:36 10° NE
Cosmos 1943 4.1 05:17:53 32° SW 05:17:53 32° SW 05:21:31 10° S
CZ-4B R/B 3.9 05:13:24 10° NNE 05:17:50 51° E 05:22:07 10° S
FALCON 9 DEB 4.1 05:18:33 43° ESE 05:18:33 43° ESE 05:21:10 10° ENE
Cosmos 1689 Rocket 3.8 05:16:31 10° SSE 05:18:12 30° SE 05:18:12 30° SE
ATLAS 3B R/B 2.7 05:17:51 32° NW 05:21:23 88° SW 05:28:36 10° SE
SAR-Lupe-4 3.7 05:19:34 10° SSE 05:22:38 64° SSE 05:22:38 64° SSE
Genesis I 4.1 05:24:54 17° S 05:27:36 47° ESE 05:31:19 10° NE
SKYMED 3 4.4 05:26:01 10° S 05:30:21 78° WSW 05:32:17 33° NNW
deb Chang Zheng 4 3.4 05:27:21 10° NNE 05:31:42 76° WNW 05:36:02 10° SSW
ALOS 2.4 05:27:21 10° N 05:31:45 48° WNW 05:31:45 48° WNW
Cosmos 923 Rocket 4.2 05:34:01 42° WNW 05:35:02 47° WSW 05:40:06 10° S
Cosmos 990 Rocket 4.0 05:29:51 10° SSW 05:35:05 86° ESE 05:40:24 10° NNE
Cosmos 2074 Rocket 4.1 05:30:48 10° S 05:36:59 80° E 05:43:13 10° N
Cosmos 2227 Rocket 4.3 05:39:03 11° NNW 05:39:03 11° NNW 05:39:52 10° N
METEOR-M 4.1 05:34:05 10° N 05:39:20 58° WNW 05:44:33 10° SSW
USA 305 3.8 05:38:55 33° NNW 05:39:52 38° N 05:43:55 10° ENE
SAR-Lupe-1 4.0 05:36:38 10° S 05:40:08 59° WSW 05:40:08 59° WSW
Meteor 1-31 Rocket 3.4 05:37:44 10° N 05:40:29 38° NNW 05:40:29 38° NNW
Cosmos 405 Rocket 3.7 05:39:19 10° S 05:42:52 46° E 05:46:29 10° NNE
ARGOS Delta rocket 4.4 05:39:15 10° N 05:43:56 36° WNW 05:44:16 36° WNW
Cosmos 1812 3.0 05:42:51 10° N 05:46:37 67° ENE 05:50:27 10° SSE
EO 1 Delta rocket 3.9 05:42:31 10° SSE 05:47:32 80° ENE 05:52:09 10° N
USA 306 3.8 05:47:01 30° NNW 05:48:22 39° N 05:52:24 10° ENE
Cosmos 2228 Rocket 3.3 05:44:42 10° N 05:49:09 72° E 05:53:32 10° SSE
Cosmos 1515 Rocket 3.6 05:46:48 21° NNW 05:49:41 56° W 05:54:03 10° S
CENTAUR R/B 4.1 05:48:50 24° W 05:50:37 26° WSW 05:57:27 10° SSW
Cosmos 158 Rocket 4.5 05:50:30 32° W 05:51:07 33° WSW 05:55:33 10° SSW
NOSS 3-4 (A) 3.6 05:48:19 26° W 05:51:27 50° NW 05:57:44 10° NE
NOSS 3-4 (C) 3.6 05:48:24 26° WSW 05:51:34 50° NW 05:57:52 10° NE
SL-4 R/B 2.3 05:50:37 38° NW 05:51:36 48° N 05:55:12 10° ENE
Cosmos 1151 Rocket 4.4 05:53:57 21° SW 05:53:57 21° SW 05:55:52 10° SSW
Cosmos 1782 3.2 05:52:14 38° W 05:52:35 39° W 05:56:21 10° SSW
PSLV R/B 3.9 05:48:57 10° S 05:53:02 60° WSW 05:55:47 20° NNW
SKYMED 2 3.9 05:50:20 10° S 05:54:29 44° W 05:56:36 25° NW
Cosmos 2184 Rocket 4.0 05:48:11 10° S 05:54:30 81° W 06:00:56 10° N
ERS-2 4.4 05:53:32 10° SSW 05:53:52 12° SW 05:53:52 12° SW
FALCON 9 DEB 2.8 05:56:58 45° WSW 05:57:49 79° NNW 06:01:02 10° ENE
Meteor 2-17 Rocket 4.5 05:52:17 10° SSW 05:58:10 54° WNW 06:04:08 10° N
SJ-12 4.0 05:54:48 10° N 05:58:43 47° WNW 06:02:36 10° SW
Cosmos 1844 Rocket 2.7 05:54:58 10° SSW 06:00:38 89° WNW 06:06:22 10° NNE
FALCON 9 DEB 4.0 05:59:52 29° NNW 06:00:55 38° N 06:04:11 10° ENE
Cosmos 1680 Rocket 4.1 06:00:25 24° NW 06:02:54 37° WSW 06:07:43 10° SSW
EXPRESS MD2 3.7 06:03:36 29° WNW 06:05:32 86° NNE 06:12:36 10° ESE
COSMOS 2455 3.7 06:02:54 10° SSW 06:08:44 54° ESE 06:14:37 10° NE
RESURS DK-1 2.4 06:04:55 10° SW 06:09:01 57° WNW 06:13:08 10° NNE
ATLAS CENTAUR R/B 1.6 06:08:18 28° WNW 06:09:51 44° WSW 06:13:36 10° SSE
Meteor PRIRODA 3.8 06:06:30 10° N 06:10:07 47° WNW 06:13:43 10° SW
BREEZE-M DEB 4.1 06:02:57 19° WNW 06:10:13 57° SW 06:13:43 10° SE
ATLAS 2AS CENTAUR R/B 3.2 06:03:30 10° WSW 06:11:17 55° NW 06:18:56 10° NE
ERBS 4.0 06:11:05 18° NNW 06:11:39 19° N 06:14:07 10° NE
EP 3 3.2 06:11:51 78° NNW 06:11:51 78° NNW 06:13:43 10° NE
ADEOS 4.3 06:09:10 10° N 06:13:37 29° WNW 06:18:03 10° WSW
Cosmos 1500 Rocket 3.5 06:09:53 10° SSW 06:14:08 59° WNW 06:18:26 10° N
H-2A R/B 2.7 06:10:35 10° N 06:14:29 71° WNW 06:18:21 10° SSW
Cosmos 1844 3.6 06:08:59 10° SSW 06:14:32 87° WNW 06:20:10 10° NNE
Lacrosse 5 2.0 06:11:18 18° W 06:14:52 54° NNW 06:19:51 10° NE
Cosmos 1437 Rocket 2.6 06:12:57 10° NNW 06:16:46 90° W 06:20:32 10° S
CZ-4B DEB 4.5 06:11:34 10° NNE 06:17:03 73° ESE 06:22:31 10° S
Cosmos 372 Rocket 4.3 06:13:09 10° S 06:18:12 67° ESE 06:23:16 10° NNE
Meteor 2-6 Rocket 4.3 06:14:20 10° NNW 06:19:33 50° W 06:24:47 10° SSW
Okean O Rocket 3.0 06:16:18 10° NNE 06:20:32 42° E 06:24:45 10° S
SJ 16-02 2.7 06:22:57 19° WNW 06:23:53 20° NW 06:27:10 10° N
SMAP 3.9 06:19:41 10° NNE 06:24:16 54° E 06:28:49 10° S
Cosmos 2263 Rocket 3.5 06:24:56 16° WNW 06:27:05 20° NW 06:31:13 10° N
Gbstr 26 Del rocket 4.1 06:26:06 16° W 06:28:10 25° SW 06:31:26 10° SSE
ATLAS 5 CENTAUR R/B 3.6 06:27:33 10° S 06:31:07 31° ESE 06:35:03 10° ENE
FALCON 9 DEB 3.1 06:28:58 17° W 06:31:13 53° NNW 06:34:23 10° ENE
FALCON 9 DEB 3.2 06:29:04 17° W 06:31:17 51° NNW 06:34:27 10° ENE
Nadezhda 3 Rocket 4.1 06:28:16 10° NNW 06:34:26 57° W 06:40:29 10° SSW
Cosmos 1898 Rocket 4.0 06:29:39 10° SW 06:34:37 39° WNW 06:39:38 10° N
Sich 1 3.1 06:30:23 10° S 06:34:49 89° E 06:39:18 10° N
CZ-2C R/B 2.9 06:30:56 10° SSE 06:36:24 77° ENE 06:41:47 10° NNW
Cosmos 1743 Rocket 4.2 06:34:11 10° SW 06:38:15 34° WNW 06:42:22 10° N
H-2A R/B 2.2 06:34:41 10° N 06:38:33 74° WNW 06:42:20 10° SSW
Envisat 2.9 06:33:36 10° N 06:38:41 71° WNW 06:43:44 10° SSW
COSMO-SKYMED 1 4.2 06:40:19 10° SW 06:42:55 16° W 06:45:12 11° NW
USA 307 3.4 06:41:18 12° WNW 06:45:08 53° NNE 06:49:22 10° E
Cosmos 2082 Rocket 3.3 06:41:53 10° NNW 06:47:19 42° NE 06:52:43 10° SE
CZ-4B R/B 3.4 06:43:00 10° NNE 06:48:23 78° ESE 06:53:49 10° SSW
CZ-4 R/B 4.4 06:47:35 10° NE 06:50:45 20° E 06:53:55 10° SE
USA 308 3.3 06:47:25 11° WNW 06:51:30 56° NNE 06:55:45 10° E
Cosmos 1937 Rocket 4.0 06:46:49 10° SW 06:51:35 37° WNW 06:56:25 10° N
Cosmos 1862 Rocket 4.1 06:47:50 10° N 06:52:18 65° ENE 06:56:41 10° SSE
CZ-4B R/B 4.3 06:49:09 10° NNW 06:52:32 21° WNW 06:55:52 10° WSW
Cosmos 1939 Rocket 4.3 06:49:54 10° NNE 06:53:48 43° E 06:57:43 10° S
FALCON 9 DEB 3.5 06:51:03 10° W 06:54:08 42° NNW 06:57:16 10° ENE
MOS 1 Rocket 4.2 06:50:55 10° SSW 06:55:12 31° W 06:59:44 10° NNW
Aureole 2 Rocket 2.8 06:54:30 10° WSW 06:56:37 23° WNW 06:58:45 10° N
Meteor 2-12 Rocket 4.5 06:51:00 10° SSW 06:57:07 71° W 07:03:18 10° N
Cosmos 1805 Rocket 4.0 06:53:08 10° SSW 06:57:21 42° WNW 07:01:37 10° N
Cosmos 1833 Rocket 2.9 06:51:50 10° NNW 06:57:30 79° ENE 07:03:07 10° SSE
Meteor 1-27 Rocket 4.1 06:55:46 10° NNW 07:01:17 48° W 07:06:52 10° SSW
Cosmos 2154 Rocket 4.4 06:56:03 10° SW 07:01:52 40° WNW 07:07:46 10° N
YAOGAN 6 3.3 06:58:46 10° N 07:01:53 30° WNW 07:04:59 10° SW
Cosmos 494 Rocket 4.1 06:58:13 10° NNW 07:03:26 83° ENE 07:08:34 10° SSE
CZ-4C R/B 2.9 06:58:46 10° W 07:03:39 36° NNW 07:09:29 10° NE
Cosmos 1666 Rocket 3.5 07:00:04 10° SSW 07:04:22 71° W 07:08:43 10° N
BREEZE-M DEB (TANK) 3.4 07:01:28 10° W 07:04:26 68° S 07:11:11 10° E
Genesis I 4.3 07:02:09 10° W 07:05:22 25° NW 07:08:37 10° NNE
Cosmos 2150 Rocket 4.1 07:01:32 10° SSW 07:06:52 85° WNW 07:12:09 10° NNE
Cosmos 2298 Rocket 4.0 07:02:04 10° SSW 07:07:22 79° WNW 07:12:43 10° NNE
COSMOS 2406 3.3 07:02:10 10° NNW 07:07:55 74° WSW 07:13:39 10° SSE
